User: anonymous   Login
Location: Fort Wayne
(41.1310°N, 85.1290°W)
Time: 01:15:39
(UTC-04:00)
Language:

Cosmos 2219 Rocket - Orbit

View from above orbital plane
View from above orbital plane
View from above satellite
View from above satellite

Ground track
Ground track

The orbit data is extracted from the following two-line orbital elements,

1 22220U 92076B   15085.13078097 -.00000111  00000-0 -31974-4 0  9999
2 22220 071.0017 332.7157 0010705 070.2498 080.6644 14.16356411155503
Epoch (UTC): 26 March 2015 03:08:19
Eccentricity: 0.0010705
inclination: 71.0017°
perigee height: 830 km
apogee height: 845 km
right ascension of ascending node: 332.7157°
argument of perigee: 70.2498°
revolutions per day: 14.16356411
mean anomaly at epoch: 80.6644°
orbit number at epoch: 15550

The dashed part of the orbit path shows where the satellite is in the earth's shadow,  

DLR